CW0311 Weather Reports


time (UTC)temp
F
wind
direction
speed
knots
gust
knots
rain 1hr
in
rain 24hr
in
rain mn
in
humidity
%
barometer
mb
20260506201514 57 298 4.3 12.2 0.02 0.10 0.10 87 1010.2
20260506200031 57 323 1.7 11.3 0.03 0.10 0.10 87 1010.1
20260506194512 57 267 2.6 7.0 0.03 0.09 0.09 87 1010.3
20260506193011 58 293 1.7 7.8 0.05 0.09 0.09 87 1010.4
20260506191510 58 245 0.9 6.1 0.06 0.08 0.08 87 1010.4
20260506190010 58 233 2.6 8.7 0.06 0.07 0.07 87 1010.6
20260506184509 59 287 0.9 5.2 0.06 0.06 0.06 87 1010.5
20260506183006 59 256 0.9 7.0 0.04 0.04 0.04 87 1010.8
20260506181512 60 268 3.5 7.8 0.02 0.02 0.02 86 1010.9
20260506180013 61 235 1.7 8.7 0.01 0.01 0.01 84 1011.1
20260506174504 63 285 5.2 13.0 0.00 0.00 0.00 81 1011.2
20260506173004 66 274 4.3 13.9 0.00 0.00 0.00 77 1011.1
20260506171504 68 258 1.7 13.0 0.00 0.00 0.00 74 1011.0
20260506170002 68 265 2.6 11.3 0.00 0.00 0.00 73 1010.8
20260506164502 69 258 3.5 7.8 0.00 0.00 0.00 72 1010.9
20260506163106 68 268 4.3 9.6 0.00 0.00 0.00 73 1011.1
20260506161558 68 268 3.5 13.9 0.00 0.00 0.00 72 1011.4
20260506160108 68 260 5.2 13.9 0.00 0.00 0.00 72 1011.5
20260506154555 68 281 4.3 8.7 0.00 0.00 0.00 74 1011.8
20260506153052 67 264 4.3 13.0 0.00 0.00 0.00 75 1012.0
20260506151551 67 286 2.6 16.5 0.00 0.00 0.00 75 1012.2
20260506150050 67 258 5.2 14.8 0.00 0.00 0.00 74 1012.4
20260506144548 67 283 1.7 13.9 0.00 0.00 0.00 76 1012.5
20260506143047 67 249 3.5 10.4 0.00 0.00 0.00 78 1012.6
20260506141604 66 262 3.5 11.3 0.00 0.00 0.00 77 1012.5
20260506140043 65 257 1.7 6.1 0.00 0.00 0.00 79 1012.4
20260506134542 65 283 4.3 8.7 0.00 0.00 0.00 79 1012.4
20260506133040 65 240 2.6 8.7 0.00 0.00 0.00 81 1012.5
20260506131539 64 276 3.5 13.0 0.00 0.00 0.00 82 1012.6
20260506130034 62 242 0.9 7.0 0.00 0.00 0.00 83 1012.9
20260506124537 61 252 3.5 9.6 0.00 0.00 0.00 83 1013.0
20260506123039 60 277 2.6 13.0 0.00 0.00 0.00 84 1012.8
20260506121527 59 252 0.9 6.1 0.00 0.00 0.00 85 1012.8
20260506120035 59 281 1.7 5.2 0.00 0.00 0.00 86 1013.2
20260506114526 57 235 0.0 6.1 0.00 0.00 0.00 86 1013.0
20260506113021 56 277 1.7 5.2 0.00 0.00 0.00 87 1013.4
20260506111520 55 278 0.0 5.2 0.00 0.00 0.00 87 1013.5
20260506110024 55 312 0.9 7.8 0.00 0.00 0.00 87 1013.6
20260506104519 55 271 1.7 5.2 0.00 0.00 0.00 87 1013.4
20260506103026 54 254 1.7 6.1 0.00 0.00 0.00 87 1013.4
20260506101520 54 289 1.7 7.0 0.00 0.00 0.00 87 1013.3
20260506100016 54 265 0.9 4.3 0.00 0.00 0.00 87 1013.4
20260506094527 54 297 1.7 6.1 0.00 0.00 0.00 87 1013.3
20260506093023 54 283 0.9 6.1 0.00 0.00 0.00 87 1013.3
20260506091512 55 293 2.6 6.1 0.00 0.00 0.00 86 1013.3
20260506090013 55 285 1.7 5.2 0.00 0.00 0.00 86 1013.4
20260506084510 55 275 0.9 6.1 0.00 0.00 0.00 86 1013.4
20260506083010 55 295 1.7 5.2 0.00 0.00 0.00 86 1013.5
20260506081508 55 294 2.6 7.0 0.00 0.00 0.00 86 1013.5
20260506073003 56 293 0.9 10.4 0.00 0.00 0.00 85 1013.5
20260506071501 56 291 2.6 8.7 0.00 0.00 0.00 84 1013.4
20260506070117 57 293 3.5 9.6 0.00 0.00 0.00 84 1013.2
20260506061601 58 256 1.7 8.7 0.00 0.00 0.00 82 1013.3
20260506044554 57 278 0.9 7.0 0.00 0.00 0.00 80 1013.7
20260506043046 58 274 2.6 8.7 0.00 0.00 0.00 79 1013.9
20260506041550 58 280 0.0 5.2 0.00 0.00 0.00 78 1013.9
20260506040043 58 258 2.6 9.6 0.00 0.00 0.00 78 1013.9
20260506034540 58 272 0.9 7.0 0.00 0.00 0.00 78 1013.8
20260506033039 58 297 2.6 6.1 0.00 0.00 0.00 77 1013.8
20260506031554 58 253 3.5 12.2 0.00 0.00 0.00 77 1013.6
20260506030050 58 260 3.5 7.0 0.00 0.00 0.00 77 1013.7
20260506024538 59 289 2.6 11.3 0.00 0.00 0.00 76 1013.7
20260506023038 59 254 3.5 13.0 0.00 0.00 0.00 76 1013.9
20260506021537 59 223 2.6 11.3 0.00 0.00 0.00 75 1013.7
20260506020036 60 280 2.6 12.2 0.00 0.00 0.00 74 1013.7
20260506014536 60 308 4.3 8.7 0.00 0.00 0.00 74 1013.4
20260506013041 60 292 3.5 11.3 0.00 0.00 0.00 74 1013.4
20260506011535 61 291 2.6 7.8 0.00 0.00 0.00 73 1013.2
20260506010036 62 285 0.9 13.9 0.00 0.00 0.00 72 1013.2
20260506004604 62 287 1.7 7.8 0.00 0.00 0.00 72 1013.1
20260506003034 62 252 2.6 9.6 0.00 0.00 0.00 71 1012.8
20260506001535 63 298 1.7 9.6 0.00 0.00 0.00 70 1012.6
20260506000034 64 247 1.7 11.3 0.00 0.00 0.00 68 1012.3
20260505234603 65 187 3.5 10.4 0.00 0.00 0.00 66 1011.9
20260505233033 66 269 3.5 9.6 0.00 0.00 0.00 64 1011.8
20260505231535 68 263 1.7 9.6 0.00 0.00 0.00 63 1011.8
20260505230031 69 251 3.5 10.4 0.00 0.00 0.00 60 1011.5
20260505224533 70 238 3.5 12.2 0.00 0.00 0.00 60 1011.2
20260505223029 70 258 2.6 10.4 0.00 0.00 0.00 60 1011.1
20260505221529 72 246 2.6 9.6 0.00 0.00 0.00 59 1010.9
20260505220028 72 274 2.6 13.0 0.00 0.00 0.00 59 1010.8
20260505214533 73 254 7.0 13.0 0.00 0.00 0.00 55 1010.9
20260505213026 75 218 3.5 17.4 0.00 0.00 0.00 55 1010.8
20260505211526 76 236 4.3 12.2 0.00 0.00 0.00 54 1010.5
20260505210028 76 221 5.2 19.1 0.00 0.00 0.00 52 1010.4
20260505204527 77 250 7.8 20.0 0.00 0.00 0.00 51 1010.2
20260505203024 78 266 4.3 13.0 0.00 0.00 0.00 49 1010.2